Location: Monteux
(44.0348°N, 4.9972°E)
Time: 17:08:57
(UTC+00:00)

Cosmos 1943 Rocket - Pass Details

Date: 30 November 2020
Orbit: 811 x 844 km, 71.0° (Epoch: 17 January)

Event Time Altitude Azimuth Distance (km) Brightness Sun altitude
Rises 16:28:46 0° 340° (NNW) 3,357 5.3 -4.9°
Reaches altitude 10° 16:31:24 10° 350° (N) 2,426 4.5 -5.3°
Maximum altitude 16:36:29 36° 56° (NE) 1,298 2.7 -6.1°
Drops below altitude 10° 16:41:35 10° 122° (ESE) 2,433 4.3 -7.0°
Sets 16:44:13 0° 131° (SE) 3,368 5.1 -7.4°
